Overview Statistics Trail Chart Weather Telemetry Raw packets
 

This is the latest recevied weather packets stored in our database for station/object N1YZ. If no packets are shown the sender has not sent any weather packets the latest 10 day(s).

<< 53 54 55 56 57 58 59 >>
Time Temp. Humidity Pressure Rain* Wind** Luminosity Snow
1788297166 33.33° C 52% 1036.5 hPa 0 mm - 63 W/m² -
1788296862 33.33° C 56% 1036.4 hPa 0 mm - 60 W/m² -
1788296557 33.33° C 54% 1036.5 hPa 0 mm - 58 W/m² -
1788296253 33.89° C 53% 1036.6 hPa 0 mm - 59 W/m² -
1788295952 34.44° C 53% 1036.6 hPa 0 mm - 112 W/m² -
1788295648 33.89° C 52% 1036.6 hPa 0 mm - 57 W/m² -
1788295344 33.89° C 52% 1036.6 hPa 0 mm - 60 W/m² -
1788295038 33.89° C 55% 1036.6 hPa 0 mm - 61 W/m² -
1788294733 34.44° C 53% 1036.6 hPa 0 mm - 92 W/m² -
1788294432 34.44° C 53% 1036.7 hPa 0 mm - 93 W/m² -
1788294128 33.89° C 51% 1036.9 hPa 0 mm - 61 W/m² -
1788293824 34.44° C 51% 1037 hPa 0 mm - 62 W/m² -
1788293523 34.44° C 54% 1037.2 hPa 0 mm - 53 W/m² -
1788293223 33.89° C 53% 1037.3 hPa 0 mm - 93 W/m² -
1788292913 34.44° C 54% 1037.2 hPa 0 mm - 87 W/m² -
1788292610 33.89° C 53% 1037.2 hPa 0 mm - 72 W/m² -
1788292304 33.89° C 54% 1037.5 hPa 0 mm - 64 W/m² -
1788291999 33.89° C 53% 1037.3 hPa 0 mm - 76 W/m² -
1788291689 33.89° C 58% 1037.3 hPa 0 mm - 68 W/m² -
1788291385 33.89° C 54% 1037.3 hPa 0 mm - 79 W/m² -
1788291079 33.89° C 51% 1037.3 hPa 0 mm - 73 W/m² -
1788290774 34.44° C 53% 1037.4 hPa 0 mm - 115 W/m² -
1788290486 33.89° C 53% 1037.7 hPa 0 mm - 80 W/m² -
1788290165 33.89° C 55% 1037.7 hPa 0 mm - 120 W/m² -
1788289862 33.33° C 53% 1037.9 hPa 0 mm - 99 W/m² -

* Rain latest hour (hover to see other rain measurements)
** Current wind speed in m/s (hover to see current wind gust speed)